Location: Blanot
(47.1713°N, 4.2340°E)
Time: 10:31:38
(UTC+00:00)

Lacrosse 5 - Pass Details

Date: 14 July 2020
Orbit: 717 x 720 km, 57.0° (Epoch: 02 August)

Event Time Altitude Azimuth Distance (km) Brightness Sun altitude
Exits shadow 00:10:41 42° 225° (SW) 1,025 2.3 -21.0°
Maximum altitude 00:12:27 85° 140° (SE) 726 1.7 -21.0°
Drops below altitude 10° 00:17:32 10° 53° (NE) 2,207 5.0 -20.9°
Sets 00:19:55 0° 53° (NE) 3,131 5.8 -20.8°
